| time (UTC) | temp F | wind direction | speed knots | gust knots | rain 1hr in | rain 24hr in | rain mn in | humidity % | barometer mb |
| 20260903194533 | 56 | 113 | 0.0 | 5.2 | 0.18 | 0.79 | 0.65 | 92 | 1010.7 |
| 20260903193030 | 56 | 117 | 0.0 | 6.1 | 0.12 | 0.73 | 0.58 | 92 | 1010.6 |
| 20260903191544 | 56 | 109 | 1.7 | 4.3 | 0.08 | 0.70 | 0.55 | 91 | 1010.6 |
| 20260903190030 | 58 | 214 | 1.7 | 8.7 | 0.02 | 0.65 | 0.49 | 87 | 1010.8 |
| 20260903184513 | 59 | 146 | 3.5 | 7.8 | 0.00 | 0.63 | 0.47 | 86 | 1010.4 |
| 20260903183033 | 58 | 38 | 0.0 | 7.0 | 0.00 | 0.65 | 0.47 | 87 | 1010.4 |
| 20260903181528 | 57 | 44 | 0.9 | 5.2 | 0.00 | 0.73 | 0.47 | 89 | 1010.6 |
| 20260903180036 | 58 | 188 | 2.6 | 8.7 | 0.00 | 0.76 | 0.47 | 88 | 1010.5 |
| 20260903174520 | 58 | 146 | 1.7 | 4.3 | 0.00 | 0.76 | 0.47 | 88 | 1010.4 |
| 20260903173018 | 58 | 9 | 0.9 | 3.5 | 0.00 | 0.77 | 0.47 | 90 | 1010.4 |
| 20260903171528 | 57 | 161 | 1.7 | 7.0 | 0.01 | 0.81 | 0.47 | 91 | 1010.3 |
| 20260903170031 | 57 | 111 | 0.9 | 5.2 | 0.04 | 0.84 | 0.47 | 91 | 1010.3 |
| 20260903164530 | 57 | 98 | 0.9 | 4.3 | 0.05 | 0.86 | 0.47 | 93 | 1010.4 |
| 20260903163019 | 56 | 77 | 0.0 | 2.6 | 0.06 | 0.90 | 0.47 | 94 | 1010.6 |
| 20260903161533 | 55 | 109 | 0.9 | 1.7 | 0.10 | 0.93 | 0.46 | 94 | 1010.7 |
| 20260903160027 | 55 | 186 | 0.0 | 7.0 | 0.10 | 0.94 | 0.43 | 93 | 1011.0 |
| 20260903154533 | 55 | 111 | 0.0 | 2.6 | 0.11 | 0.95 | 0.42 | 94 | 1011.0 |
| 20260903153030 | 54 | 215 | 0.0 | 3.5 | 0.14 | 0.95 | 0.41 | 94 | 1011.0 |
| 20260903151522 | 54 | 103 | 0.9 | 5.2 | 0.10 | 0.90 | 0.36 | 94 | 1011.0 |
| 20260903150029 | 54 | 135 | 0.9 | 3.5 | 0.07 | 0.87 | 0.33 | 94 | 1010.9 |
| 20260903144530 | 54 | 120 | 2.6 | 9.6 | 0.06 | 0.85 | 0.31 | 93 | 1010.8 |
| 20260903143038 | 54 | 90 | 1.7 | 8.7 | 0.03 | 0.81 | 0.27 | 94 | 1010.5 |
| 20260903141532 | 54 | 134 | 0.9 | 5.2 | 0.02 | 0.80 | 0.26 | 94 | 1010.2 |
| 20260903140026 | 54 | 76 | 0.9 | 4.3 | 0.04 | 0.80 | 0.26 | 94 | 1010.2 |
| 20260903134528 | 54 | 188 | 0.0 | 3.5 | 0.04 | 0.79 | 0.25 | 94 | 1010.1 |
| 20260903133031 | 54 | 168 | 1.7 | 5.2 | 0.05 | 0.78 | 0.24 | 94 | 1010.0 |
| 20260903131536 | 54 | 114 | 1.7 | 7.0 | 0.08 | 0.78 | 0.24 | 94 | 1009.8 |
| 20260903130024 | 54 | 95 | 0.0 | 2.6 | 0.15 | 0.76 | 0.22 | 94 | 1009.9 |
| 20260903124547 | 54 | 90 | 0.9 | 5.2 | 0.16 | 0.75 | 0.21 | 94 | 1009.9 |
| 20260903123029 | 54 | 124 | 0.9 | 3.5 | 0.16 | 0.73 | 0.19 | 93 | 1010.0 |
| 20260903121533 | 54 | 105 | 0.0 | 7.8 | 0.14 | 0.70 | 0.16 | 93 | 1010.2 |
| 20260903120024 | 55 | 119 | 0.0 | 5.2 | 0.07 | 0.61 | 0.07 | 93 | 1010.2 |
| 20260903114526 | 55 | 115 | 0.0 | 2.6 | 0.05 | 0.58 | 0.05 | 93 | 1010.2 |
| 20260903113032 | 55 | 181 | 0.9 | 6.1 | 0.03 | 0.57 | 0.03 | 92 | 1010.2 |
| 20260903111532 | 55 | 148 | 0.9 | 7.0 | 0.02 | 0.56 | 0.02 | 92 | 1010.2 |
| 20260903110019 | 55 | 148 | 0.9 | 5.2 | 0.00 | 0.54 | 0.00 | 92 | 1010.2 |
| 20260903104527 | 55 | 169 | 1.7 | 7.0 | 0.00 | 0.54 | 0.00 | 92 | 1010.0 |
| 20260903103030 | 55 | 175 | 3.5 | 8.7 | 0.00 | 0.54 | 0.00 | 91 | 1010.1 |
| 20260903101535 | 55 | 119 | 0.9 | 4.3 | 0.00 | 0.54 | 0.00 | 91 | 1010.2 |
| 20260903100023 | 55 | 173 | 0.0 | 6.1 | 0.00 | 0.54 | 0.00 | 91 | 1010.1 |
| 20260903094524 | 55 | 160 | 1.7 | 6.1 | 0.00 | 0.54 | 0.00 | 91 | 1010.1 |
| 20260903093004 | 55 | 5 | 0.9 | 5.2 | 0.00 | 0.54 | 0.00 | 92 | 1010.1 |
| 20260903091512 | 55 | 205 | 0.0 | 5.2 | 0.00 | 0.54 | 0.00 | 92 | 1010.2 |
| 20260903090011 | 55 | 166 | 0.9 | 4.3 | 0.00 | 0.54 | 0.00 | 91 | 1010.2 |
| 20260903084520 | 55 | 96 | 1.7 | 7.8 | 0.00 | 0.54 | 0.00 | 92 | 1010.4 |
| 20260903083028 | 55 | 121 | 1.7 | 4.3 | 0.00 | 0.54 | 0.00 | 91 | 1010.4 |
| 20260903081504 | 55 | 134 | 0.9 | 4.3 | 0.00 | 0.54 | 0.00 | 91 | 1010.4 |
| 20260903080009 | 56 | 116 | 1.7 | 6.1 | 0.00 | 0.54 | 0.00 | 91 | 1010.6 |
| 20260903074518 | 56 | 165 | 2.6 | 6.1 | 0.00 | 0.54 | 0.00 | 91 | 1010.6 |
| 20260903073028 | 56 | 124 | 2.6 | 6.1 | 0.00 | 0.54 | 0.00 | 91 | 1010.6 |
| 20260903071505 | 56 | 169 | 0.9 | 7.8 | 0.00 | 0.54 | 0.00 | 91 | 1010.4 |
| 20260903070008 | 56 | 124 | 1.7 | 5.2 | 0.00 | 0.54 | 0.00 | 92 | 1010.3 |
| 20260903064512 | 55 | 145 | 0.9 | 3.5 | 0.00 | 0.54 | 0.54 | 92 | 1010.3 |
| 20260903063020 | 56 | 140 | 0.9 | 3.5 | 0.00 | 0.54 | 0.54 | 92 | 1010.4 |
| 20260903061527 | 56 | 123 | 0.0 | 3.5 | 0.00 | 0.54 | 0.54 | 92 | 1010.5 |
| 20260903060005 | 56 | 99 | 0.0 | 3.5 | 0.00 | 0.54 | 0.54 | 92 | 1010.4 |
| 20260903054512 | 55 | 121 | 0.0 | 1.7 | 0.00 | 0.54 | 0.54 | 91 | 1010.6 |
| 20260903053018 | 55 | 126 | 0.0 | 1.7 | 0.00 | 0.54 | 0.54 | 91 | 1010.6 |
| 20260903051526 | 55 | 103 | 0.0 | 1.7 | 0.00 | 0.54 | 0.54 | 91 | 1010.5 |
| 20260903050035 | 55 | 108 | 0.0 | 0.0 | 0.00 | 0.54 | 0.54 | 92 | 1010.5 |
| 20260903044509 | 54 | 108 | 0.0 | 1.7 | 0.00 | 0.54 | 0.54 | 92 | 1010.5 |
| 20260903043015 | 54 | 123 | 0.0 | 0.0 | 0.00 | 0.54 | 0.54 | 91 | 1010.2 |
| 20260903041517 | 54 | 116 | 0.0 | 0.0 | 0.00 | 0.54 | 0.54 | 89 | 1010.2 |
| 20260903040030 | 55 | 119 | 0.0 | 0.9 | 0.00 | 0.54 | 0.54 | 88 | 1010.1 |
| 20260903034530 | 55 | 149 | 0.0 | 2.6 | 0.00 | 0.54 | 0.54 | 89 | 1009.9 |
| 20260903033013 | 55 | 203 | 1.7 | 2.6 | 0.00 | 0.54 | 0.54 | 89 | 1009.7 |
| 20260903031518 | 56 | 119 | 0.0 | 0.0 | 0.00 | 0.54 | 0.54 | 86 | 1009.3 |
| 20260903030029 | 57 | 177 | 0.0 | 1.7 | 0.00 | 0.54 | 0.54 | 84 | 1009.3 |
| 20260903024531 | 58 | 186 | 0.0 | 1.7 | 0.00 | 0.54 | 0.54 | 82 | 1009.1 |
| 20260903023036 | 59 | 186 | 0.0 | 7.0 | 0.00 | 0.54 | 0.54 | 80 | 1009.1 |
| 20260903021513 | 60 | 181 | 0.0 | 1.7 | 0.00 | 0.54 | 0.54 | 79 | 1008.9 |
| 20260903020034 | 60 | 157 | 0.9 | 5.2 | 0.00 | 0.54 | 0.54 | 78 | 1008.7 |
| 20260903014527 | 61 | 157 | 0.0 | 7.0 | 0.00 | 0.54 | 0.54 | 80 | 1008.8 |
| 20260903013029 | 60 | 205 | 1.7 | 5.2 | 0.00 | 0.54 | 0.54 | 80 | 1008.6 |
| 20260903011514 | 61 | 135 | 2.6 | 7.0 | 0.00 | 0.54 | 0.54 | 79 | 1008.5 |
| 20260903010018 | 61 | 161 | 0.0 | 6.1 | 0.00 | 0.54 | 0.54 | 80 | 1008.5 |
| 20260903004525 | 61 | 138 | 0.0 | 6.1 | 0.00 | 0.54 | 0.54 | 81 | 1008.2 |
| 20260903003027 | 62 | 128 | 1.7 | 5.2 | 0.00 | 0.54 | 0.54 | 82 | 1008.2 |
| 20260903001534 | 62 | 136 | 0.9 | 3.5 | 0.00 | 0.54 | 0.54 | 83 | 1008.1 |
| 20260903000016 | 62 | 115 | 1.7 | 6.1 | 0.01 | 0.54 | 0.54 | 87 | 1008.0 |
| 20260902234523 | 61 | 97 | 0.9 | 4.3 | 0.01 | 0.54 | 0.54 | 88 | 1007.9 |
| 20260902233027 | 60 | 157 | 0.0 | 0.9 | 0.01 | 0.54 | 0.54 | 89 | 1007.9 |
| 20260902231532 | 59 | 141 | 0.0 | 5.2 | 0.01 | 0.54 | 0.54 | 88 | 1007.9 |
| 20260902230037 | 60 | 111 | 0.9 | 3.5 | 0.01 | 0.52 | 0.52 | 88 | 1007.9 |
| 20260902224519 | 60 | 96 | 0.9 | 4.3 | 0.01 | 0.52 | 0.52 | 90 | 1007.5 |
| 20260902223048 | 59 | 151 | 0.0 | 7.0 | 0.10 | 0.52 | 0.52 | 89 | 1007.3 |
| 20260902221531 | 59 | 134 | 1.7 | 7.8 | 0.13 | 0.52 | 0.52 | 91 | 1007.2 |
| 20260902220032 | 59 | 139 | 1.7 | 6.1 | 0.12 | 0.52 | 0.52 | 1007.1 | |
| 20260902214516 | 58 | 180 | 1.7 | 7.8 | 0.12 | 0.52 | 0.52 | 1007.1 | |
| 20260902213025 | 59 | 132 | 2.6 | 7.8 | 0.03 | 0.43 | 0.43 | 91 | 1006.8 |
| 20260902211526 | 59 | 189 | 1.7 | 9.6 | 0.00 | 0.40 | 0.40 | 91 | 1006.7 |
| 20260902210031 | 59 | 215 | 5.2 | 11.3 | 0.00 | 0.40 | 0.40 | 91 | 1006.7 |
| 20260902204544 | 58 | 202 | 1.7 | 11.3 | 0.00 | 0.40 | 0.40 | 92 | 1006.6 |
| 20260902203021 | 58 | 135 | 3.5 | 11.3 | 0.00 | 0.40 | 0.40 | 92 | 1006.5 |
| 20260902201528 | 58 | 321 | 0.9 | 7.8 | 0.01 | 0.40 | 0.40 | 92 | 1006.4 |
| 20260902200037 | 58 | 153 | 1.7 | 7.8 | 0.02 | 0.40 | 0.40 | 1006.4 |